星链-4192 (STARLINK-4192 )

导读

STARLINK-4192是美国SpaceX公司星链(Starlink)卫星互联网星座的组成卫星,于2022年6月17日发射升空。星链项目旨在通过近地轨道卫星星座,为全球提供高速宽带互联网服务,尤其改善偏远地区网络覆盖。该卫星运行在近地轨道,承担星座网络节点功能,支撑全球互联互通的卫星通信网络部署,是星链大规模组网建设中的单元之一。

基本信息
目录编号:
52881
目录名称:
STARLINK-4192
国际标识:
2022-062BD
轨道中心:
EARTH
卫星名称:
星链-4192
卫星全名:
星链-4192 (STARLINK-4192 )
卫星状态:
已陨落 最后检测时间 2024-09-02
发射日期:
2022-06-17 UTC
国别 :
美国 (US)
星等 :
--
该卫星已列入 空间交会检测服务 Space Conjunction Data Service (SCDS) ,当前飞行风险评估等级: 无高风险
轨道信息
数据来源 国际轨道数据
星历时间: 2024-09-03T07:02:28+0800
轨道信息已过期740天
半长轴: 6511.008km
偏心率: 0.0004746
轨道倾角: 53.197°
近地点辐角 309.411°
升交点赤经 319.478°
平近点角 198.859°
近地点: 129.782km
远地点: 135.964km
周期: 87.143分钟
每日圈数: 16.524581
详细信息
固有亮度:
5
最大亮度:
2.5
卫星平台:
Starlink v1.5
覆盖范围:
全球
运营商:
太空探索技术公司
运营商所在国:
美国
制造商(研发单位):
太空探索技术公司
制造商所在国:
美国
使用方式:
暂无
卫星简介
星链(Starlink)计划是由太空探索技术公司(SpaceX)提出的一个巨型低轨卫星互联网星座项目,计划在2019年至2024年间在太空搭建由约1.2万颗卫星组成的“星链”网络,其中1584颗将部署在地球上空550千米处的近地轨道,并从2020年开始工作。该卫星仍在工作。
与全量物体交会距离演化趋势
与全量物体交会风险概率演化趋势